Group_ship,Cruise,JD_GMT,Date_DDMMYYYY,TIME_HH:MM:SS,Lat_dec_degree,Long_dec_degree,xCO2eq_ppm,xCO2a_ppm,Pres_Equi_hPa,Pres_sealevel_hPa,EqTemp_C,SST(TSG)_C,Sal(TSG)_Permil,Water_flow_l/min,Gasflow_IR_ml/min,Temp_IR_C,Pres_IR_hPa,Ship_heading_true_degree,Ship_speed_knot,Wind_dir_rel_degree,Wind_speed_rel_m/s,fCO2W@SST_uatm,Qcflag_water,fCO2a_uatm,Qcflag_air,dfCO2_uatm,Fluoro_ug/l,Wind_speed_true_m/s,Wind_dir_true_degree,Air_temp_C,Oxygen
AOML_Explorer,Ex0721N,140.991,20052007,23:47:10,40.255,-73.580,330.83,-9.00,1007.87,1005.50,14.09,13.19,30.721,1.368,100.964,30.954,1007.870,136.100,19.300,80.000,9.265,310.88,2,-9.00,9,-9.00,0.53,12.26,268.32,16.26,281.24
AOML_Explorer,Ex0721N,140.993,20052007,23:49:43,40.245,-73.567,332.55,-9.00,1007.87,1005.50,14.10,13.29,30.830,1.378,100.640,30.958,1007.869,137.200,19.300,79.000,10.294,313.66,2,-9.00,9,-9.00,0.49,12.77,265.32,16.17,282.77
AOML_Explorer,Ex0721N,140.995,20052007,23:52:16,40.235,-73.555,336.44,-9.00,1007.97,1005.50,14.11,13.36,31.056,1.406,100.656,30.962,1007.970,137.300,19.300,84.000,9.265,318.17,2,-9.00,9,-9.00,0.46,12.76,271.34,16.16,283.80
AOML_Explorer,Ex0721N,140.996,20052007,23:54:49,40.225,-73.543,341.22,-9.00,1008.02,1005.40,14.18,13.35,31.307,1.423,100.563,30.966,1008.017,136.900,19.300,82.000,8.235,321.73,2,-9.00,9,-9.00,0.43,11.93,274.15,16.11,285.13
AOML_Explorer,Ex0721N,140.998,20052007,23:57:22,40.215,-73.531,349.48,-9.00,1007.99,1005.40,14.24,13.08,31.493,1.397,100.527,30.968,1007.986,136.900,19.300,86.000,8.235,324.89,2,-9.00,9,-9.00,0.42,12.42,275.80,16.19,286.10
AOML_Explorer,Ex0721N,141.000,20052007,23:59:55,40.205,-73.519,359.21,-9.00,1008.09,1005.30,14.25,12.92,31.628,1.361,100.410,30.972,1008.086,136.500,19.500,87.000,6.691,331.74,2,-9.00,9,-9.00,0.41,11.71,282.12,16.2,287.41
AOML_Explorer,Ex0721N,141.015,21052007,0:21:40,40.119,-73.416,376.40,-9.00,1008.27,1005.80,13.45,12.37,31.844,1.437,101.405,31.066,1008.272,137.000,19.400,76.000,7.206,351.46,2,-9.00,9,-9.00,0.48,10.81,277.06,15.3,291.72
AOML_Explorer,Ex0721N,141.017,21052007,0:24:13,40.109,-73.404,377.88,-9.00,1008.22,1005.80,13.48,12.32,31.843,1.375,101.464,31.076,1008.221,137.100,19.400,79.000,7.206,351.71,2,-9.00,9,-9.00,0.49,11.14,278.01,15.36,291.38
AOML_Explorer,Ex0721N,141.019,21052007,0:26:46,40.099,-73.392,377.62,-9.00,1008.28,1005.80,13.46,12.32,31.780,1.387,101.186,31.081,1008.283,137.100,19.500,77.000,7.206,351.81,2,-9.00,9,-9.00,0.47,10.94,277.31,15.46,290.87
AOML_Explorer,Ex0721N,141.020,21052007,0:29:19,40.089,-73.380,376.74,-9.00,1008.31,1005.70,13.42,12.46,31.752,1.391,101.371,31.088,1008.305,137.200,19.500,79.000,6.691,353.68,2,-9.00,9,-9.00,0.46,10.92,280.33,15.51,291.45
AOML_Explorer,Ex0721N,141.022,21052007,0:31:52,40.078,-73.367,374.11,-9.00,1008.35,1005.80,13.37,12.50,31.770,1.383,101.258,31.092,1008.352,137.400,19.500,86.000,6.691,352.38,2,-9.00,9,-9.00,0.43,11.63,282.54,15.56,292.17
AOML_Explorer,Ex0721N,141.024,21052007,0:34:25,40.068,-73.355,373.03,-9.00,1008.31,1005.80,13.48,12.35,31.835,1.418,101.203,31.098,1008.310,137.100,19.500,78.000,6.176,347.69,2,-9.00,9,-9.00,0.41,10.59,282.87,15.7,293.11
AOML_Explorer,Ex0721N,141.026,21052007,0:36:58,40.058,-73.343,374.00,-9.00,1008.48,1005.90,13.51,12.11,31.918,1.450,101.373,31.100,1008.477,137.100,19.500,85.000,6.691,344.67,2,-9.00,9,-9.00,0.39,11.53,282.20,15.68,294.50
AOML_Explorer,Ex0721N,141.027,21052007,0:39:31,40.048,-73.331,377.28,-9.00,1008.52,1006.00,13.43,11.99,31.890,1.426,101.136,31.106,1008.519,137.100,19.500,80.000,5.662,347.27,2,-9.00,9,-9.00,0.39,10.64,285.88,15.68,294.00
AOML_Explorer,Ex0721N,141.029,21052007,0:42:04,40.038,-73.319,380.67,-9.00,1008.47,1005.90,13.28,11.96,31.902,1.452,101.478,31.106,1008.475,137.000,19.500,82.000,5.147,352.01,2,-9.00,9,-9.00,0.39,10.63,288.57,15.72,293.68
AOML_Explorer,Ex0721N,141.031,21052007,0:44:37,40.028,-73.307,381.51,-9.00,1008.58,1005.90,13.14,11.96,31.914,1.414,101.193,31.111,1008.585,137.400,19.400,81.000,5.662,355.05,2,-9.00,9,-9.00,0.40,10.73,285.97,15.76,293.84
AOML_Explorer,Ex0721N,141.033,21052007,0:47:10,40.017,-73.295,380.47,-9.00,1008.69,1006.00,13.11,11.61,32.051,1.431,101.211,31.116,1008.692,137.300,19.500,75.000,6.176,349.40,2,-9.00,9,-9.00,0.41,10.40,282.26,15.7,294.38
AOML_Explorer,Ex0721N,141.035,21052007,0:49:43,40.007,-73.282,379.52,-9.00,1008.57,1006.00,13.08,11.49,31.889,1.398,101.499,31.124,1008.566,137.600,19.500,83.000,6.176,347.21,2,-9.00,9,-9.00,0.42,11.15,284.53,15.46,294.14
AOML_Explorer,Ex0721N,141.036,21052007,0:52:16,39.997,-73.270,379.53,-9.00,1009.13,1006.00,12.89,11.60,31.836,1.398,101.354,31.124,1009.125,137.400,19.600,80.000,6.176,351.77,2,-9.00,9,-9.00,0.40,10.89,283.66,15.31,293.77
AOML_Explorer,Ex0721N,141.038,21052007,0:54:49,39.987,-73.258,378.28,-9.00,1008.63,1006.10,12.73,11.76,31.849,1.425,101.061,31.128,1008.628,137.100,19.700,82.000,6.176,355.32,2,-9.00,9,-9.00,0.38,11.09,283.78,15.23,293.77
AOML_Explorer,Ex0721N,141.040,21052007,0:57:22,39.976,-73.246,377.16,-9.00,1008.64,1006.20,12.71,11.80,31.965,1.401,101.400,31.131,1008.644,137.400,19.700,82.000,7.721,355.06,2,-9.00,9,-9.00,0.39,11.87,277.34,15.07,294.05
AOML_Explorer,Ex0721N,141.042,21052007,0:59:55,39.966,-73.233,378.32,-9.00,1008.71,1006.20,12.83,11.93,32.044,1.333,101.121,31.133,1008.714,137.200,19.700,86.000,7.721,356.22,2,-9.00,9,-9.00,0.37,12.32,278.63,15.08,293.71
AOML_Explorer,Ex0721N,141.057,21052007,1:21:40,39.888,-73.118,382.01,-9.00,1009.27,1006.50,12.82,11.16,32.870,1.327,101.612,31.204,1009.272,126.500,19.500,87.000,5.147,348.87,2,-9.00,9,-9.00,0.23,11.12,279.11,15.03,297.08
AOML_Explorer,Ex0721N,141.058,21052007,1:24:13,39.879,-73.104,381.13,-9.00,1009.38,1006.60,12.65,11.17,32.833,1.376,101.658,31.205,1009.377,126.600,19.500,80.000,5.147,350.65,2,-9.00,9,-9.00,0.23,10.47,277.85,14.94,296.73
AOML_Explorer,Ex0721N,141.060,21052007,1:26:46,39.871,-73.090,376.38,-9.00,1009.29,1006.50,12.43,11.24,32.782,1.387,101.738,31.204,1009.285,132.600,19.400,79.000,6.691,350.59,2,-9.00,9,-9.00,0.23,11.04,276.47,14.85,296.68
AOML_Explorer,Ex0721N,141.062,21052007,1:29:19,39.861,-73.077,373.52,-9.00,1009.31,1006.80,12.38,11.31,32.814,1.339,101.753,31.203,1009.312,134.200,19.500,77.000,7.206,349.73,2,-9.00,9,-9.00,0.22,11.00,274.66,14.72,296.97
AOML_Explorer,Ex0721N,141.064,21052007,1:31:52,39.851,-73.064,372.89,-9.00,1009.38,1006.70,12.41,11.28,32.870,1.382,101.968,31.202,1009.384,134.200,19.500,81.000,6.691,348.18,2,-9.00,9,-9.00,0.22,11.21,278.38,14.67,297.11
AOML_Explorer,Ex0721N,141.066,21052007,1:34:25,39.842,-73.051,373.07,-9.00,1009.36,1006.80,12.50,11.14,32.939,1.229,102.029,31.198,1009.361,134.000,19.500,83.000,5.662,345.02,2,-9.00,9,-9.00,0.21,10.97,283.49,14.65,296.74
AOML_Explorer,Ex0721N,141.067,21052007,1:36:58,39.832,-73.039,373.27,-9.00,1009.54,1006.90,12.50,11.02,32.942,1.278,101.839,31.195,1009.538,134.000,19.500,84.000,6.691,343.52,2,-9.00,9,-9.00,0.20,11.54,278.78,14.68,298.10
AOML_Explorer,Ex0721N,141.069,21052007,1:39:31,39.822,-73.026,373.76,-9.00,1009.38,1006.90,12.42,10.64,33.015,1.285,101.995,31.187,1009.383,134.200,19.500,81.000,6.691,339.75,2,-9.00,9,-9.00,0.20,11.20,278.38,14.7,298.59
AOML_Explorer,Ex0721N,141.071,21052007,1:42:04,39.813,-73.012,372.26,-9.00,1009.44,1007.00,12.32,10.57,32.959,1.245,101.905,31.185,1009.441,129.400,19.500,78.000,5.662,338.84,2,-9.00,9,-9.00,0.22,10.50,277.66,14.76,298.85
AOML_Explorer,Ex0721N,141.073,21052007,1:44:37,39.804,-72.999,368.70,-9.00,1009.55,1007.00,12.09,10.70,32.940,1.259,102.066,31.178,1009.545,129.500,19.600,84.000,6.691,340.71,2,-9.00,9,-9.00,0.21,11.58,274.47,14.75,298.92
AOML_Explorer,Ex0721N,141.074,21052007,1:47:10,39.795,-72.985,364.09,-9.00,1009.44,1007.00,11.94,10.65,33.033,1.293,102.067,31.168,1009.443,129.200,19.600,86.000,7.206,337.75,2,-9.00,9,-9.00,0.23,12.07,272.85,14.72,300.79
AOML_Explorer,Ex0721N,141.076,21052007,1:49:43,39.787,-72.971,361.99,-9.00,1009.51,1007.10,11.97,10.55,33.033,1.261,102.047,31.163,1009.507,129.600,19.600,81.000,8.750,334.13,2,-9.00,9,-9.00,0.23,12.40,265.22,14.66,302.03
AOML_Explorer,Ex0721N,141.078,21052007,1:52:16,39.778,-72.957,361.41,-9.00,1009.59,1007.20,12.00,10.54,33.009,1.250,101.973,31.158,1009.589,129.400,19.600,76.000,11.323,333.06,2,-9.00,9,-9.00,0.22,13.38,253.86,14.42,302.17
AOML_Explorer,Ex0721N,141.080,21052007,1:54:49,39.769,-72.943,359.53,-9.00,1009.69,1007.20,11.91,10.54,33.005,1.274,102.263,31.153,1009.689,129.300,19.700,81.000,10.294,332.56,2,-9.00,9,-9.00,0.22,13.39,259.87,14.5,302.33
AOML_Explorer,Ex0721N,141.082,21052007,1:57:22,39.760,-72.929,357.48,-9.00,1009.60,1007.20,11.88,10.57,33.013,1.247,102.010,31.150,1009.595,129.100,19.700,85.000,8.235,331.58,2,-9.00,9,-9.00,0.22,12.61,268.66,14.62,302.14
AOML_Explorer,Ex0721N,141.083,21052007,1:59:55,39.751,-72.915,356.39,-9.00,1009.75,1007.40,11.87,10.57,33.041,1.217,102.195,31.144,1009.751,129.100,19.700,81.000,9.265,330.76,2,-9.00,9,-9.00,0.20,12.77,263.39,14.39,301.55
AOML_Explorer,Ex0721N,141.098,21052007,2:21:40,39.668,-72.804,362.35,-9.00,1009.74,1007.50,12.12,10.96,33.007,1.216,102.123,31.178,1009.735,135.000,19.700,76.000,10.809,338.17,2,-9.00,9,-9.00,0.16,13.15,261.35,13.65,295.29
AOML_Explorer,Ex0721N,141.100,21052007,2:24:13,39.658,-72.792,363.19,-9.00,1009.95,1007.50,12.15,10.95,33.041,1.254,101.953,31.177,1009.953,134.900,19.700,79.000,11.323,338.42,2,-9.00,9,-9.00,0.20,13.94,261.71,13.54,296.04
AOML_Explorer,Ex0721N,141.102,21052007,2:26:46,39.648,-72.779,365.54,-9.00,1009.94,1007.50,12.19,10.90,33.053,1.241,101.956,31.173,1009.939,135.000,19.800,79.000,11.838,339.34,2,-9.00,9,-9.00,0.20,14.33,260.37,13.43,297.87
AOML_Explorer,Ex0721N,141.104,21052007,2:29:19,39.638,-72.766,369.71,-9.00,1010.10,1007.50,12.19,10.85,33.071,1.251,102.147,31.168,1010.099,135.300,19.800,77.000,11.323,342.46,2,-9.00,9,-9.00,0.20,13.65,260.78,13.45,299.73
AOML_Explorer,Ex0721N,141.105,21052007,2:31:52,39.628,-72.753,369.49,-9.00,1009.92,1007.60,12.20,10.64,33.118,1.270,102.151,31.165,1009.917,134.700,19.700,77.000,11.323,339.12,2,-9.00,9,-9.00,0.24,13.68,260.20,13.37,302.36
AOML_Explorer,Ex0721N,141.107,21052007,2:34:25,39.618,-72.740,367.47,-9.00,1009.84,1007.50,12.14,10.17,33.054,1.202,102.300,31.155,1009.836,135.200,19.500,77.000,11.323,331.68,2,-9.00,9,-9.00,0.29,13.55,260.59,13.28,306.68
AOML_Explorer,Ex0721N,141.109,21052007,2:36:58,39.608,-72.727,364.29,-9.00,1009.87,1007.50,12.00,10.05,32.891,1.242,102.127,31.147,1009.875,135.000,19.500,82.000,10.294,329.07,2,-9.00,9,-9.00,0.30,13.58,265.97,13.31,307.76
AOML_Explorer,Ex0721N,141.111,21052007,2:39:31,39.598,-72.715,358.69,-9.00,1009.97,1007.50,11.72,9.94,32.837,1.222,102.284,31.139,1009.967,137.700,19.500,78.000,10.809,326.45,2,-9.00,9,-9.00,0.31,13.35,264.78,13.37,309.23
AOML_Explorer,Ex0721N,141.113,21052007,2:42:04,39.588,-72.703,353.03,-9.00,1010.12,1007.50,11.58,9.86,32.773,1.224,102.192,31.133,1010.121,136.600,19.700,79.000,10.809,322.03,2,-9.00,9,-9.00,0.30,13.53,264.52,13.39,310.49
AOML_Explorer,Ex0721N,141.114,21052007,2:44:37,39.578,-72.690,350.10,-9.00,1009.93,1007.60,11.43,9.80,32.763,1.218,102.255,31.122,1009.932,136.800,19.800,76.000,11.323,320.55,2,-9.00,9,-9.00,0.31,13.46,261.45,13.09,311.36
AOML_Explorer,Ex0721N,141.116,21052007,2:47:10,39.566,-72.676,348.94,-9.00,1009.92,1007.60,11.36,9.75,32.703,1.254,102.302,31.116,1009.918,136.700,19.900,73.000,11.838,319.79,2,-9.00,9,-9.00,0.30,13.39,258.21,12.9,312.10
AOML_Explorer,Ex0721N,141.118,21052007,2:49:43,39.555,-72.662,348.84,-9.00,1009.90,1007.60,11.31,9.69,32.704,1.236,101.962,31.104,1009.899,136.700,19.900,77.000,12.868,319.56,2,-9.00,9,-9.00,0.31,14.80,257.90,12.82,312.53
AOML_Explorer,Ex0721N,141.120,21052007,2:52:16,39.545,-72.649,349.12,-9.00,1009.78,1007.70,11.26,9.70,32.663,1.227,102.503,31.097,1009.777,137.000,19.900,71.000,12.868,320.68,2,-9.00,9,-9.00,0.30,13.79,254.00,12.74,312.41
AOML_Explorer,Ex0721N,141.121,21052007,2:54:49,39.537,-72.640,349.40,-9.00,1009.90,1007.70,11.23,9.72,32.669,1.188,102.503,31.093,1009.899,136.400,19.900,67.000,12.868,321.69,2,-9.00,9,-9.00,0.28,13.15,250.98,12.55,311.58
AOML_Explorer,Ex0721N,141.123,21052007,2:57:22,39.527,-72.628,349.51,-9.00,1009.92,1007.70,11.17,9.68,32.691,1.216,102.449,31.085,1009.924,136.700,20.000,67.000,11.323,322.10,2,-9.00,9,-9.00,0.25,12.15,256.49,13.11,311.52
AOML_Explorer,Ex0721N,141.125,21052007,2:59:55,39.523,-72.622,349.96,-9.00,1009.96,1007.50,11.20,9.65,32.668,1.192,102.406,31.076,1009.958,0.000,0.000,72.000,11.323,321.71,2,-9.00,9,-9.00,0.27,12.91,259.23,13.23,311.54
AOML_Explorer,Ex0721N,141.140,21052007,3:21:40,39.430,-72.510,348.92,-9.00,1010.09,1008.00,11.00,9.47,32.651,1.233,102.202,31.084,1010.090,137.700,19.900,66.000,10.809,320.93,2,-9.00,9,-9.00,0.23,11.52,258.31,12.57,313.21
AOML_Explorer,Ex0721N,141.142,21052007,3:24:13,39.420,-72.498,349.43,-9.00,1010.27,1007.90,10.99,9.41,32.651,1.207,102.226,31.081,1010.265,137.700,19.900,70.000,10.809,320.98,2,-9.00,9,-9.00,0.22,12.13,260.54,12.54,313.41
AOML_Explorer,Ex0721N,141.144,21052007,3:26:46,39.409,-72.486,349.87,-9.00,1010.13,1007.80,10.97,9.43,32.616,1.228,102.228,31.075,1010.134,137.800,19.900,74.000,10.294,321.67,2,-9.00,9,-9.00,0.21,12.42,264.56,12.61,313.56
AOML_Explorer,Ex0721N,141.145,21052007,3:29:19,39.399,-72.474,350.39,-9.00,1010.15,1007.90,10.92,9.42,32.633,1.182,102.252,31.071,1010.147,137.800,19.900,69.000,9.779,322.85,2,-9.00,9,-9.00,0.21,11.42,264.30,12.66,313.70
AOML_Explorer,Ex0721N,141.147,21052007,3:31:52,39.388,-72.461,350.75,-9.00,1010.15,1007.90,10.92,9.45,32.614,1.157,102.258,31.065,1010.154,137.900,19.900,74.000,9.265,323.48,2,-9.00,9,-9.00,0.21,11.80,268.82,12.72,313.68
AOML_Explorer,Ex0721N,141.149,21052007,3:34:25,39.378,-72.449,351.13,-9.00,1010.20,1007.80,10.92,9.47,32.611,1.083,102.294,31.056,1010.199,137.700,19.900,72.000,8.750,324.19,2,-9.00,9,-9.00,0.18,11.27,270.04,12.8,312.92
AOML_Explorer,Ex0721N,141.151,21052007,3:36:58,39.367,-72.437,351.54,-9.00,1010.22,1007.80,10.94,9.53,32.600,1.118,102.415,31.049,1010.219,138.200,19.900,73.000,9.265,325.10,2,-9.00,9,-9.00,0.18,11.59,268.58,12.94,312.98
AOML_Explorer,Ex0721N,141.152,21052007,3:39:31,39.357,-72.425,351.97,-9.00,1010.16,1007.80,10.97,9.56,32.614,1.129,102.311,31.041,1010.159,138.300,19.800,75.000,9.265,325.47,2,-9.00,9,-9.00,0.18,11.88,269.40,13.09,313.14
AOML_Explorer,Ex0721N,141.154,21052007,3:42:04,39.346,-72.413,352.54,-9.00,1010.28,1008.00,11.02,9.61,32.620,1.116,102.294,31.033,1010.280,137.500,19.900,75.000,8.235,326.09,2,-9.00,9,-9.00,0.20,11.39,273.25,13.07,313.07
AOML_Explorer,Ex0721N,141.156,21052007,3:44:37,39.336,-72.401,352.66,-9.00,1010.49,1007.90,11.04,9.48,32.613,1.082,102.461,31.021,1010.486,138.300,19.900,78.000,8.235,324.30,2,-9.00,9,-9.00,0.32,11.74,274.71,12.99,314.59
AOML_Explorer,Ex0721N,141.158,21052007,3:47:10,39.325,-72.389,352.30,-9.00,1010.36,1007.90,11.08,9.59,32.631,1.044,102.505,31.011,1010.363,138.400,20.000,78.000,7.721,324.74,2,-9.00,9,-9.00,0.34,11.49,277.44,13.08,313.71
AOML_Explorer,Ex0721N,141.160,21052007,3:49:43,39.315,-72.377,351.99,-9.00,1010.40,1007.90,11.05,9.67,32.622,1.052,102.538,31.002,1010.404,138.400,20.100,73.000,8.235,325.92,2,-9.00,9,-9.00,0.34,11.07,273.52,13.05,313.19
AOML_Explorer,Ex0721N,141.161,21052007,3:52:16,39.304,-72.365,351.67,-9.00,1010.36,1008.10,11.10,9.81,32.627,1.077,102.391,30.994,1010.355,138.700,20.100,61.000,9.265,326.84,2,-9.00,9,-9.00,0.32,9.92,263.70,12.89,311.65
AOML_Explorer,Ex0721N,141.163,21052007,3:54:49,39.293,-72.353,352.01,-9.00,1010.49,1008.10,11.16,9.88,32.713,1.010,102.550,30.987,1010.485,138.500,19.900,64.000,9.265,327.30,2,-9.00,9,-9.00,0.31,10.30,264.96,12.62,310.78
AOML_Explorer,Ex0721N,141.165,21052007,3:57:22,39.283,-72.341,352.40,-9.00,1010.44,1008.20,11.24,10.05,32.743,1.062,102.629,30.976,1010.439,138.000,20.000,66.000,8.235,328.92,2,-9.00,9,-9.00,0.36,10.17,270.32,12.56,308.91
AOML_Explorer,Ex0721N,141.167,21052007,3:59:55,39.273,-72.328,352.68,-9.00,1010.47,1008.20,11.32,10.31,32.902,1.006,102.682,30.964,1010.470,136.900,20.100,66.000,9.779,331.65,2,-9.00,9,-9.00,0.39,11.02,262.46,12.53,308.36
AOML_Explorer,Ex0721N,141.223,21052007,5:21:40,38.957,-71.927,350.97,-9.00,1010.79,1008.70,11.79,10.16,33.050,0.778,102.434,30.843,1010.786,136.300,19.600,70.000,10.809,321.67,2,-9.00,9,-9.00,0.53,12.20,258.98,12.96,306.99
AOML_Explorer,Ex0721N,141.225,21052007,5:24:13,38.946,-71.914,352.65,-9.00,1010.76,1008.70,11.77,10.12,33.032,0.804,102.441,30.839,1010.755,136.500,19.700,76.000,11.323,322.98,2,-9.00,9,-9.00,0.56,13.42,261.12,12.81,307.89
AOML_Explorer,Ex0721N,141.227,21052007,5:26:46,38.936,-71.902,353.56,-9.00,1010.73,1008.60,11.75,10.04,33.007,0.740,102.583,30.834,1010.729,136.400,19.700,75.000,10.809,322.89,2,-9.00,9,-9.00,0.54,12.82,262.11,12.86,308.53
AOML_Explorer,Ex0721N,141.229,21052007,5:29:19,38.926,-71.890,354.05,-9.00,1010.74,1008.70,11.79,9.95,32.964,0.727,102.407,30.828,1010.742,136.600,19.800,71.000,9.779,321.68,2,-9.00,9,-9.00,0.53,11.71,263.86,12.78,308.99
AOML_Explorer,Ex0721N,141.230,21052007,5:31:52,38.916,-71.878,354.38,-9.00,1010.70,1008.60,11.77,9.82,32.955,0.778,102.386,30.821,1010.700,136.200,19.800,73.000,9.779,320.45,2,-9.00,9,-9.00,0.52,11.99,264.65,12.73,309.34
AOML_Explorer,Ex0721N,141.232,21052007,5:34:25,38.906,-71.865,354.60,-9.00,1010.68,1008.60,11.71,9.72,32.928,0.858,102.466,30.814,1010.677,136.900,20.000,79.000,9.265,320.17,2,-9.00,9,-9.00,0.53,12.50,269.87,12.77,309.60
AOML_Explorer,Ex0721N,141.234,21052007,5:36:58,38.896,-71.853,355.08,-9.00,1010.75,1008.60,11.63,9.72,32.868,0.832,102.528,30.806,1010.753,136.800,19.900,78.000,9.265,321.63,2,-9.00,9,-9.00,0.50,12.36,269.51,13.01,309.57
AOML_Explorer,Ex0721N,141.236,21052007,5:39:31,38.886,-71.841,355.56,-9.00,1010.73,1008.70,11.56,9.74,32.866,0.691,102.579,30.797,1010.729,137.600,20.000,77.000,9.265,323.33,2,-9.00,9,-9.00,0.51,12.16,269.48,13.08,309.55
AOML_Explorer,Ex0721N,141.238,21052007,5:42:04,38.875,-71.828,355.90,-9.00,1010.73,1008.70,11.47,9.73,32.882,0.686,102.604,30.791,1010.727,136.500,20.000,68.000,8.750,324.61,2,-9.00,9,-9.00,0.47,10.70,267.36,13.15,309.10
AOML_Explorer,Ex0721N,141.239,21052007,5:44:37,38.865,-71.816,355.87,-9.00,1010.77,1008.70,11.45,9.69,32.891,0.767,102.446,30.781,1010.772,137.700,20.100,68.000,9.779,324.40,2,-9.00,9,-9.00,0.46,11.27,263.70,13.09,308.68
AOML_Explorer,Ex0721N,141.241,21052007,5:47:10,38.855,-71.804,355.74,-9.00,1010.85,1008.70,11.46,9.65,32.889,0.803,102.506,30.778,1010.849,137.300,20.100,72.000,9.265,323.67,2,-9.00,9,-9.00,0.43,11.56,267.42,13.09,308.24
AOML_Explorer,Ex0721N,141.243,21052007,5:49:43,38.844,-71.792,355.86,-9.00,1010.85,1008.80,11.46,9.58,32.895,0.677,102.702,30.770,1010.851,138.200,20.100,69.000,9.779,322.89,2,-9.00,9,-9.00,0.41,11.37,264.35,13.17,307.79
AOML_Explorer,Ex0721N,141.245,21052007,5:52:16,38.834,-71.780,356.41,-9.00,1010.99,1008.70,11.43,9.66,32.857,0.830,102.516,30.763,1010.989,137.400,20.100,75.000,10.294,324.78,2,-9.00,9,-9.00,0.44,12.49,265.05,13.16,308.32
AOML_Explorer,Ex0721N,141.246,21052007,5:54:49,38.823,-71.767,357.20,-9.00,1010.88,1008.70,11.38,9.94,32.906,0.713,102.645,30.755,1010.881,138.400,20.000,76.000,9.265,330.03,2,-9.00,9,-9.00,0.44,11.96,269.54,13.29,309.03
AOML_Explorer,Ex0721N,141.248,21052007,5:57:22,38.813,-71.755,358.09,-9.00,1010.94,1008.80,11.34,10.13,32.976,0.692,102.717,30.750,1010.939,138.000,20.100,68.000,9.779,334.07,2,-9.00,9,-9.00,0.44,11.09,263.77,13.24,308.96
AOML_Explorer,Ex0721N,141.250,21052007,5:59:55,38.802,-71.743,358.15,-9.00,1011.01,1008.90,11.42,10.38,32.956,0.768,102.780,30.745,1011.013,138.900,20.100,68.000,9.265,336.55,2,-9.00,9,-9.00,0.48,10.74,266.80,12.93,308.74
AOML_Explorer,Ex0721N,141.473,21052007,11:21:40,37.868,-70.629,363.53,-9.00,1013.95,1011.40,24.48,24.86,36.352,1.873,102.749,30.491,1013.954,0.000,0.000,340.000,3.603,357.23,2,-9.00,9,-9.00,0.05,7.70,323.61,20,227.27
AOML_Explorer,Ex0721N,141.475,21052007,11:24:13,37.868,-70.629,364.83,-9.00,1013.89,1011.40,24.51,24.89,36.357,1.842,102.712,30.501,1013.895,0.000,0.000,331.000,4.118,358.51,2,-9.00,9,-9.00,0.05,7.42,329.06,19.99,227.11
AOML_Explorer,Ex0721N,141.477,21052007,11:26:46,37.868,-70.629,365.59,-9.00,1013.93,1011.40,24.53,24.90,36.359,1.836,102.870,30.512,1013.931,0.000,0.000,352.000,3.088,359.03,2,-9.00,9,-9.00,0.06,7.99,318.53,20.25,226.93
AOML_Explorer,Ex0721N,141.479,21052007,11:29:19,37.868,-70.629,366.44,-9.00,1013.96,1011.50,24.57,24.89,36.360,1.859,102.781,30.521,1013.963,0.000,0.000,359.000,2.574,359.22,2,-9.00,9,-9.00,0.06,8.46,317.11,20.3,226.83
AOML_Explorer,Ex0721N,141.480,21052007,11:31:52,37.868,-70.629,366.87,-9.00,1013.98,1011.50,24.58,24.87,36.369,1.871,102.758,30.527,1013.979,0.000,0.000,341.000,3.088,359.18,2,-9.00,9,-9.00,0.05,7.98,323.58,20.4,226.91
AOML_Explorer,Ex0721N,141.482,21052007,11:34:25,37.868,-70.629,366.89,-9.00,1014.08,1011.40,24.58,24.83,36.380,1.833,102.835,30.534,1014.076,0.000,0.000,347.000,3.603,358.79,2,-9.00,9,-9.00,0.05,7.41,323.23,20.42,226.94
AOML_Explorer,Ex0721N,141.484,21052007,11:36:58,37.868,-70.629,367.44,-9.00,1014.17,1011.60,24.56,24.75,36.393,1.819,102.891,30.538,1014.175,0.000,0.000,2.000,3.088,358.33,2,-9.00,9,-9.00,0.06,7.98,314.97,20.43,227.28
AOML_Explorer,Ex0721N,141.486,21052007,11:39:31,37.401,-70.063,367.22,-9.00,1014.17,1011.60,24.54,24.79,36.373,1.838,102.594,30.542,1014.174,139.800,21.200,14.000,3.603,359.09,2,-9.00,9,-9.00,0.06,7.61,310.71,20.68,227.01
AOML_Explorer,Ex0721N,141.488,21052007,11:42:04,37.390,-70.051,366.22,-9.00,1014.31,1011.70,24.48,24.80,36.366,1.814,102.629,30.546,1014.305,140.100,21.100,20.000,3.603,359.27,2,-9.00,9,-9.00,0.06,7.78,308.40,20.71,226.88
AOML_Explorer,Ex0721N,141.489,21052007,11:44:37,37.379,-70.039,366.02,-9.00,1014.28,1011.70,24.50,24.83,36.375,1.806,102.641,30.551,1014.278,140.500,21.000,337.000,4.632,359.13,2,-9.00,9,-9.00,0.06,6.51,332.62,20.75,226.54
AOML_Explorer,Ex0721N,141.491,21052007,11:47:10,37.367,-70.027,366.22,-9.00,1014.25,1011.80,24.52,24.88,36.370,1.809,102.664,30.550,1014.255,140.700,20.900,359.000,4.632,359.70,2,-9.00,9,-9.00,0.05,6.20,317.35,20.78,227.52
AOML_Explorer,Ex0721N,141.493,21052007,11:49:43,37.356,-70.015,367.31,-9.00,1014.16,1011.70,24.55,24.87,36.373,1.846,102.619,30.557,1014.163,140.600,20.800,353.000,3.603,360.11,2,-9.00,9,-9.00,0.05,7.14,321.15,20.93,228.08
AOML_Explorer,Ex0721N,141.495,21052007,11:52:16,37.344,-70.004,367.18,-9.00,1014.11,1011.60,24.59,24.82,36.368,1.832,102.722,30.563,1014.110,141.000,20.700,345.000,4.118,358.77,2,-9.00,9,-9.00,0.05,6.70,326.79,21.06,228.18
AOML_Explorer,Ex0721N,141.496,21052007,11:54:49,37.333,-69.993,366.18,-9.00,1014.17,1011.70,24.58,24.91,36.350,1.845,102.638,30.568,1014.174,141.300,20.500,357.000,3.088,359.30,2,-9.00,9,-9.00,0.05,7.51,319.90,21.17,226.98
AOML_Explorer,Ex0721N,141.498,21052007,11:57:22,37.321,-69.981,365.47,-9.00,1014.23,1011.80,24.56,24.94,36.352,1.845,102.588,30.572,1014.232,142.300,20.500,358.000,2.574,359.25,2,-9.00,9,-9.00,0.05,8.05,321.40,21.22,227.00
AOML_Explorer,Ex0721N,141.500,21052007,11:59:55,37.310,-69.970,365.85,-9.00,1014.26,1011.70,24.63,24.91,36.370,1.810,102.726,30.578,1014.261,141.600,20.600,0.000,3.603,358.20,2,-9.00,9,-9.00,0.05,7.08,319.80,21.38,227.03
AOML_Explorer,Ex0721N,141.515,21052007,12:21:40,37.214,-69.871,360.05,-9.00,1015.00,1012.00,23.98,23.76,36.420,1.804,102.265,30.721,1014.996,137.100,20.300,44.000,2.574,346.01,2,-9.00,9,-9.00,0.04,9.01,303.69,22.08,230.00
AOML_Explorer,Ex0721N,141.517,21052007,12:24:13,37.204,-69.859,358.96,-9.00,1014.65,1011.90,23.78,24.01,36.367,1.792,102.336,30.735,1014.650,138.200,20.100,7.000,3.088,351.25,2,-9.00,9,-9.00,0.03,7.39,313.07,22.14,229.35
AOML_Explorer,Ex0721N,141.519,21052007,12:26:46,37.193,-69.847,356.02,-9.00,1014.60,1011.90,23.67,24.00,36.400,1.828,102.358,30.746,1014.604,137.200,20.000,22.000,3.603,349.98,2,-9.00,9,-9.00,0.04,7.18,305.36,22.28,229.48
AOML_Explorer,Ex0721N,141.520,21052007,12:29:19,37.183,-69.835,355.86,-9.00,1014.61,1012.10,23.81,23.88,36.435,1.818,102.272,30.753,1014.612,138.300,19.900,22.000,3.088,346.04,2,-9.00,9,-9.00,0.04,7.53,309.03,22.52,230.09